Estación de Remehue INIA
Ultimos registro cada 15 minutos 48
| N° | Estación | Fecha / Hora | Temperatura | Humedad | Lluvia | Velocidad | Dirección | Radiación | Presion |
| 48 | Remehue INIA | 09-05-2026 11:45 | 9,6 | 73,1 | 0 | 0,7 | 30 | 457 | 1020 |
| 47 | Remehue INIA | 09-05-2026 11:30 | 8,6 | 76,7 | 0 | 0,8 | 125 | 417 | 1020 |
| 46 | Remehue INIA | 09-05-2026 11:15 | 7,8 | 81 | 0 | 0,7 | 106 | 392 | 1020 |
| 45 | Remehue INIA | 09-05-2026 11:00 | 7,2 | 88,4 | 0 | 0,6 | 108 | 370 | 1020 |
| 44 | Remehue INIA | 09-05-2026 10:45 | 6 | 95,6 | 0 | 0,5 | 16 | 351 | 1020 |
| 43 | Remehue INIA | 09-05-2026 10:30 | 4,9 | 98,1 | 0 | 0,2 | 197 | 325 | 1020 |
| 42 | Remehue INIA | 09-05-2026 10:15 | 3,8 | 98,5 | 0 | 0,1 | 191 | 294 | 1020 |
| 41 | Remehue INIA | 09-05-2026 10:00 | 3 | 98,4 | 0 | 0,2 | 189 | 264 | 1020 |
| 40 | Remehue INIA | 09-05-2026 09:45 | 2,3 | 97,8 | 0 | 0,1 | 205 | 232 | 1020 |
| 39 | Remehue INIA | 09-05-2026 09:30 | 1,7 | 98,6 | 0 | 0 | 0 | 199 | 1020 |
| 38 | Remehue INIA | 09-05-2026 09:15 | 0,3 | 99,5 | 0,1 | 0 | 0 | 167 | 1020 |
| 37 | Remehue INIA | 09-05-2026 09:00 | -0,8 | 99,4 | 0 | 0,2 | 348 | 123 | 1020 |
| 36 | Remehue INIA | 09-05-2026 08:45 | -1,2 | 99 | 0 | 0 | 0 | 57 | 1020 |
| 35 | Remehue INIA | 09-05-2026 08:30 | -1,4 | 99,1 | 0 | 0 | 167 | 39 | 1020 |
| 34 | Remehue INIA | 09-05-2026 08:15 | -1,6 | 99,4 | 0 | 0 | 0 | 18 | 1020 |
| 33 | Remehue INIA | 09-05-2026 08:00 | -1,6 | 99 | 0 | 0 | 0 | 7 | 1020 |
| 32 | Remehue INIA | 09-05-2026 07:45 | -1,5 | 99 | 0 | 0,1 | 160 | 0 | 1020 |
| 31 | Remehue INIA | 09-05-2026 07:30 | -1,5 | 99,1 | 0 | 0,1 | 128 | 0 | 1020 |
| 30 | Remehue INIA | 09-05-2026 07:15 | -1,4 | 98,3 | 0 | 0,2 | 354 | 0 | 1020 |
| 29 | Remehue INIA | 09-05-2026 07:00 | -1,1 | 98,7 | 0 | 0 | 0 | 0 | 1020 |
| 28 | Remehue INIA | 09-05-2026 06:45 | -0,8 | 98,8 | 0 | 0,3 | 309 | 0 | 1020 |
| 27 | Remehue INIA | 09-05-2026 06:30 | -0,7 | 98,7 | 0 | 0 | 312 | 0 | 1020 |
| 26 | Remehue INIA | 09-05-2026 06:15 | -0,9 | 99,1 | 0 | 0 | 0 | 0 | 1020 |
| 25 | Remehue INIA | 09-05-2026 06:00 | -0,6 | 98,8 | 0 | 0,1 | 356 | 0 | 1020 |
| 24 | Remehue INIA | 09-05-2026 05:45 | -0,5 | 98,3 | 0 | 0,1 | 168 | 0 | 1020 |
| 23 | Remehue INIA | 09-05-2026 05:30 | 0,1 | 98,1 | 0 | 0,4 | 159 | 0 | 1020 |
| 22 | Remehue INIA | 09-05-2026 05:15 | 0,3 | 98 | 0 | 0 | 0 | 0 | 1020 |
| 21 | Remehue INIA | 09-05-2026 05:00 | 0,6 | 96,7 | 0 | 0,1 | 157 | 0 | 1020 |
| 20 | Remehue INIA | 09-05-2026 04:45 | 1 | 97,2 | 0 | 0,3 | 101 | 0 | 1020 |
| 19 | Remehue INIA | 09-05-2026 04:30 | 0,8 | 97,4 | 0 | 0,4 | 88 | 0 | 1021 |
| 18 | Remehue INIA | 09-05-2026 04:15 | 0,7 | 98,1 | 0 | 0 | 0 | 0 | 1021 |
| 17 | Remehue INIA | 09-05-2026 04:00 | 0,6 | 98,5 | 0 | 0,1 | 8 | 0 | 1021 |
| 16 | Remehue INIA | 09-05-2026 03:45 | 1,3 | 96,2 | 0 | 0,6 | 308 | 0 | 1021 |
| 15 | Remehue INIA | 09-05-2026 03:30 | 1,4 | 96,9 | 0 | 0,3 | 138 | 0 | 1021 |
| 14 | Remehue INIA | 09-05-2026 03:15 | 1,7 | 95,3 | 0 | 0,2 | 325 | 0 | 1021 |
| 13 | Remehue INIA | 09-05-2026 03:00 | 1,8 | 95,7 | 0 | 0,6 | 321 | 0 | 1021 |
| 12 | Remehue INIA | 09-05-2026 02:45 | 2,4 | 95,8 | 0 | 0,6 | 262 | 0 | 1021 |
| 11 | Remehue INIA | 09-05-2026 02:30 | 3,5 | 95,3 | 0 | 0,8 | 314 | 0 | 1021 |
| 10 | Remehue INIA | 09-05-2026 02:15 | 3,7 | 95,1 | 0 | 0 | 173 | 0 | 1021 |
| 9 | Remehue INIA | 09-05-2026 02:00 | 3,5 | 94 | 0 | 0,1 | 148 | 0 | 1021 |
| 8 | Remehue INIA | 09-05-2026 01:45 | 3,7 | 93,7 | 0 | 0,1 | 154 | 0 | 1021 |
| 7 | Remehue INIA | 09-05-2026 01:30 | 4 | 92,1 | 0 | 0,2 | 157 | 0 | 1021 |
| 6 | Remehue INIA | 09-05-2026 01:15 | 4,5 | 91 | 0 | 0,1 | 138 | 0 | 1021 |
| 5 | Remehue INIA | 09-05-2026 01:00 | 4,3 | 91 | 0 | 0,1 | 124 | 0 | 1021 |
| 4 | Remehue INIA | 09-05-2026 00:45 | 4,1 | 91,6 | 0 | 0,1 | 148 | 0 | 1021 |
| 3 | Remehue INIA | 09-05-2026 00:30 | 4 | 91,3 | 0 | 0,1 | 125 | 0 | 1021 |
| 2 | Remehue INIA | 09-05-2026 00:15 | 3,8 | 91,6 | 0 | 0,3 | 184 | 0 | 1021 |
| 1 | Remehue INIA | 09-05-2026 00:00 | 4,5 | 88,7 | 0 | 0,1 | 35 | 0 | 1021 |